STARLINK-1008, 44714

Orbit data source: Space-Track

STARLINK-1008, 44714 is a payload satellite owned by SpaceX/Seattle (US) in LEO that was launched on Mon, 11 Nov 2019 UTC via an FALCON 9 launch vehicle from the Air Force Eastern Test Range (AFETR). Payload-class satellites include a variety of spacecraft equipped with specific instruments for various scientific and technological missions. These include communications satellites like Starlink; space stations such as the ISS; scientific satellites like the Hubble; Earth observation satellites from companies like Planet Labs, Umbra, and HawkEye 360; GPS; miniature CubeSats for education and research; and military/defense satellites.

Loading next visibility...
Identifier
44714, 2019-074B
Orbit
LEO
Country
Flag of USUS
Related business
Manufacturer
SpaceX/Seattle
Mission
Partially operational Commercial Communications
Bus & Motor
STARLINK, Unknown motor
Mass
260 kg wet, ~248 kg dry
Launch date (UTC)
2019-11-11 (6 years ago)
Launch vehicle
FALCON 9
Launch site
Air Force Eastern Test Range (AFETR)
Object type
Payload
Rocket body
Debris
Shape & HBR
Box + 1 Pan, 10.1 m
Radar Cross Section
13.562 m², Large (>1 m²)

Expand to show TLE details & history
Last TLE update: 6 hours ago

TLE from 6 hours ago
0 STARLINK-1008
1 44714U 19074B   26119.22957249  .00066987  00000-0  13407-2 0  9993
2 44714  53.1550 302.2301 0000839  41.5178 318.5894 15.46165939356638
Epoch: 2026-04-29T05:30Z
TLE epoch observation values (Epoch: 2026-04-29T05:30:35.063Z)
Latitude
0.00006°
Longitude
2.39052°
Altitude
428.431 km
Speed
7.656 km/s
True Right ascension
20h 08m 55s
True Declination
0° 00' 00"
Sunlit
Object was in daylight at epoch
Visualization orbit readout
Latitude
Unknown
Longitude
Unknown
Altitude
Unknown
Speed
Unknown
Apparent Right ascension
Unknown
Apparent Declination
Unknown
Sunlit
N/A
Visualization observer readout
Local Sidereal Time
19:24:48
Azimuth
Unknown
Elevation
Unknown
Doppler factor
Unknown
Orbital elements
Apogee altitude
428.784 km
Perigee altitude
427.642 km
Semi-major axis
6,806.35 km
Eccentricity
0.00008
Inclination
53.155°
RAAN
302.2301°
Arg. of periapsis
41.5178°
True anomaly
318.58304°
Mean anomaly
318.5894°
Eccentric anomaly
318.58622°
Mean motion
3.8652 °/min
Orbital period
93.14 mins
BSTAR
0.0013407
Loading maneuver chart data...
Computing Atmospheric mass density...
Loading historical data...
Loading historical data...
Loading historical data...
Loading historical data...
Loading historical data...
Loading historical data...
Loading historical data...

Documentation

Showing up to 5 results
|